Location: Fours
(44.3167°N, 6.7000°E)
Time: 11:23:23
(UTC+00:00)

SL-16 R/B - Pass Details

Date: 16 October 2021
Orbit: 842 x 846 km, 71.0° (Epoch: 02 December)

Event Time Altitude Azimuth Distance (km) Brightness Sun altitude
Rises 19:45:40 0° 216° (SW) 3,387 5.5 -32.3°
Reaches altitude 10° 19:48:08 10° 220° (SW) 2,456 4.8 -32.7°
Enters shadow 19:51:13 32° 234° (SW) 1,404 3.5 -33.2°
